MET-2/21
1 22782U 93055A   05271.82727804  .00000064  00000-0  44676-4 0 03148
2 22782 082.5506 178.7769 0022090 189.2942 170.7810 13.83594680609907
OKEAN-4
1 23317U 94066A   05271.77462865  .00000285  00000-0  32535-4 0  7446
2 23317 082.5408 160.8093 0022526 151.5057 208.7387 14.82234765591252
NOAA-14
1 23455U 94089A   05272.33739198  .00000282  00000-0  17395-3 0  7828
2 23455 099.0787 322.3149 0009968 070.3327 289.8932 14.13600357554217
SICH-1
1 23657U 95046A   05272.67359836  .00000243  00000-0  27958-4 0  5484
2 23657 082.5269 300.8213 0025092 136.1230 224.1984 14.81238399543424
NOAA-15
1 25338U 98030A   05272.09340214  .00000030  00000-0  31327-4 0  2031
2 25338 098.5156 277.2776 0011603 057.9775 302.2530 14.24540586383543
RESURS
1 25394U 98043A   05272.90054519 -.00000010  00000-0  14215-4 0  1931
2 25394 098.5293 339.0857 0001226 176.5319 183.5866 14.24081155375350
FENGYUN1
1 25730U 99025A   05271.60794984  .00000090  00000-0  72348-4 0 05313
2 25730 098.6130 269.2846 0014447 162.9583 197.2077 14.11801234329100
OKEAN-0
1 25860U 99039A   05272.69090312  .00000097  00000-0  22306-4 0  5503
2 25860 097.7523 293.9650 0000784 117.8790 242.2498 14.73294425333395
NOAA-16
1 26536U 00055A   05272.36486096  .00000433  00000-0  25972-3 0  5387
2 26536 099.0250 231.4687 0011060 131.2311 228.9837 14.12278643258765
NOAA-17
1 27453U 02032A   05272.37329021  .00000220  00000-0  11510-3 0  5554
2 27453 098.6517 344.2689 0012678 112.4096 247.8438 14.23707000169660
NOAA-18
1 28654U 05018A   05272.38216714 -.00000049  00000-0 -30634-5 0  1704
2 28654 098.7520 216.6858 0013488 240.0848 119.8984 14.10886147 18609
HUBBLE
1 20580U 90037B   05271.46911197  .00000740  00000-0  45288-4 0  4365
2 20580 028.4697 315.7594 0003629 283.4274 076.5908 14.99850855645764
UARS
1 21701U 91063B   05272.75488372 -.00000229  00000-0  24124-5 0  5550
2 21701 056.9793 126.1157 0010534 095.9700 264.2588 15.04740261769229
PO-34
1 25520U 98064B   05271.83639794  .00000844  00000-0  32452-4 0 03052
2 25520 028.4594 339.2472 0005217 271.8059 088.1914 15.16452579382330
ISS
1 25544U 98067A   05272.99823992  .00017070  00000-0  12381-3 0  4557
2 25544 051.6431 084.1115 0001701 091.5471 049.0572 15.73536726392172
OO-38
1 26063U 00004C   05272.73028882 -.00000039  00000-0  68293-5 0  4480
2 26063 100.1998 151.8226 0037255 120.9046 239.5814 14.35734782297291
NO-45
1 26932U 01043D   05272.74651133 -.00000195  00000-0 -43818-4 0  1375
2 26932 067.0590 318.1649 0003738 260.3826 099.6862 14.29499798208744
